Wind_Speed
5 4 4 3 3 4 3 4 3 1 1 3 3 4 3 7 19 21 17 12 8 4 1 4 4 3 7 8 8 10 5 9 10 14 11 3 3 11 12 10 15 17 15 16 17
8 7 6 5 5 4 4 5 4 3 1 2 3 4 3 3 10 20 19 16 12 9 5 1 2 3 2 3 6 5 7 4 9 11 8 11 2 3 8 11 11 16 17 18 17
10 9 9 8 7 7 7 6 6 5 3 3 4 3 3 1 4 14 20 19 17 13 9 4 5 4 6 3 6 9 4 5 6 9 15 7 3 6 4 8 9 10 11 13 14
13 12 11 10 10 10 9 8 7 7 5 3 4 4 4 2 4 7 16 18 19 18 14 9 7 6 6 6 5 17 13 13 8 13 22 19 11 10 7 2 4 5 6 9 14
16 15 14 13 12 11 10 9 9 8 7 5 3 6 5 4 10 7 8 15 19 19 16 12 9 8 9 8 11 10 12 7 17 10 15 19 19 12 7 8 4 1 3 5 11
19 18 17 15 14 13 12 10 10 9 8 7 4 6 7 5 10 10 8 11 15 16 16 13 11 10 11 8 10 14 17 21 19 17 17 19 15 19 10 12 7 2 1 1 6
21 20 20 18 17 15 13 12 11 10 10 9 6 7 8 5 12 11 5 10 12 13 14 15 13 10 10 10 12 11 22 14 6 9 12 13 20 19 9 13 8 7 5 1 3
22 22 22 21 20 18 16 15 14 12 11 10 9 7 7 11 14 7 6 9 10 9 13 14 12 9 10 15 12 12 0 2 9 5 9 20 17 12 14 8 10 9 9 5 3
23 23 23 23 22 20 18 18 17 15 14 12 11 10 8 9 5 6 7 9 11 12 14 16 12 11 13 13 12 8 6 3 8 9 8 25 20 18 17 12 15 14 10 6 1
22 23 23 23 23 21 19 19 19 19 18 16 14 12 9 10 10 11 9 14 17 11 10 11 12 16 18 14 10 9 10 11 4 9 13 17 13 7 12 15 16 21 16 14 14
21 21 22 22 22 20 18 18 19 22 22 20 16 14 11 12 12 10 9 11 17 16 15 12 18 21 17 14 10 13 10 14 8 13 9 13 11 16 12 17 20 23 19 10 8
23 21 20 21 20 18 16 19 20 23 22 21 20 21 17 16 19 11 12 12 14 17 15 16 23 17 11 12 13 14 16 16 18 21 13 9 13 14 15 20 25 24 20 18 14
24 23 20 19 18 17 16 19 19 20 22 22 20 21 21 21 20 14 15 11 15 18 14 19 14 12 13 13 15 14 18 18 23 21 17 14 17 18 17 18 17 25 26 22 19
23 23 21 19 18 16 20 19 18 17 15 23 23 21 20 22 25 18 18 17 15 14 10 13 15 13 12 15 13 18 17 20 25 26 25 22 14 25 21 12 19 23 32 20 22
23 22 22 20 18 18 20 18 16 11 4 8 13 17 21 26 20 19 18 22 21 17 17 20 10 10 16 14 14 15 16 13 16 24 25 23 9 18 12 14 16 21 33 21 25
22 21 21 21 19 21 18 16 13 8 8 6 7 10 17 22 29 18 13 22 20 18 20 21 17 18 15 13 14 15 13 11 13 21 7 18 10 14 11 14 15 20 28 22 23
21 20 19 20 21 23 19 17 11 9 8 4 4 5 16 14 20 24 19 16 16 20 25 21 20 20 20 18 16 13 12 4 1 2 8 5 8 12 14 10 11 18 18 20 23
19 18 18 17 24 24 23 22 13 6 19 6 6 4 9 15 15 16 21 23 19 18 20 18 19 25 17 13 10 11 9 8 5 3 6 7 4 13 11 11 9 11 16 20 25
16 15 15 21 24 24 27 27 19 8 9 19 17 7 5 8 15 15 20 22 24 21 25 18 27 20 15 16 10 12 15 18 10 5 4 10 14 14 9 13 13 10 13 18 21
13 13 15 19 20 22 28 31 25 20 11 5 2 1 3 4 2 6 12 9 23 26 27 27 24 14 8 10 15 13 24 15 13 4 4 6 7 9 14 17 19 19 19 22 24
10 9 10 14 17 22 31 31 28 25 25 13 9 10 4 5 1 4 7 3 14 21 25 30 28 23 15 10 7 13 17 19 13 6 7 1 4 5 11 19 24 25 22 20 25
7 8 9 9 9 19 26 25 23 24 29 28 13 11 9 9 3 3 3 2 4 11 23 29 32 31 26 20 18 17 9 13 17 9 7 6 7 8 11 13 18 18 18 19 19
10 10 12 11 7 7 8 13 19 25 23 21 18 10 12 10 6 6 2 1 2 2 5 19 25 27 31 26 15 10 9 7 11 12 9 5 3 6 16 21 20 15 12 18 20
15 8 11 9 8 7 6 11 11 7 14 20 14 7 13 8 13 8 8 2 1 3 4 4 11 15 25 19 9 11 3 1 4 2 3 7 12 8 6 16 16 24 18 16 18
16 12 14 7 5 8 8 8 5 1 9 14 12 14 13 10 13 15 19 11 4 2 1 4 5 6 7 7 5 7 10 3 5 7 5 11 10 8 8 7 9 17 15 17 22
17 15 16 5 4 5 11 13 5 4 5 15 13 15 14 17 10 10 14 11 7 6 2 3 3 4 2 2 5 10 7 8 9 11 12 12 11 10 8 14 19 17 18 20 20
17 20 12 9 3 5 5 16 8 3 3 8 15 10 10 11 14 16 14 10 11 9 4 5 3 7 6 6 9 8 3 5 10 11 11 11 13 15 14 17 15 18 18 18 18
Wind_Direction
243 236 228 223 212 205 218 249 253 253 9 359 336 319 290 230 213 208 203 220 239 250 30 41 100 70 84 67 37 43 67 126 97 110 90 47 26 57 62 52 54 47 52 63 70
246 244 242 239 236 236 241 260 276 288 316 348 337 320 315 271 219 208 211 221 236 247 252 312 352 274 303 53 45 9 48 103 138 157 166 49 6 64 84 79 65 54 46 54 68
246 249 247 244 246 245 246 251 269 279 289 325 329 320 308 349 173 196 208 222 233 240 246 251 281 294 267 297 340 313 279 272 233 211 227 254 257 273 168 108 77 74 53 60 69
247 247 247 248 246 246 246 254 261 268 278 288 317 316 299 161 146 171 200 218 231 238 241 241 258 273 262 244 291 314 292 269 289 255 257 262 267 269 221 50 83 66 52 68 72
244 247 248 244 247 248 249 250 258 263 276 279 309 308 287 230 173 155 179 207 221 229 235 237 243 257 270 252 296 312 343 310 315 267 280 264 263 263 233 224 238 105 43 63 78
247 247 248 249 248 250 253 255 256 263 271 276 282 306 291 265 219 215 214 192 196 209 221 220 222 237 248 264 284 304 327 315 299 282 265 252 253 237 230 230 240 223 30 54 77
250 249 249 249 249 250 253 259 261 263 266 272 271 288 301 247 236 235 218 198 191 190 196 208 205 227 247 257 263 309 320 321 278 241 241 220 225 244 242 230 239 275 221 129 42
251 252 251 250 249 248 251 254 260 264 265 266 266 274 301 259 265 279 233 214 196 199 196 201 202 222 240 243 259 299 15 86 151 210 208 204 222 239 252 274 274 257 262 300 359
253 251 251 252 252 252 252 253 258 260 263 266 259 264 281 278 248 228 230 191 198 176 171 199 216 219 236 256 259 269 217 178 182 175 229 218 233 233 254 270 284 274 305 297 30
256 254 251 251 251 252 256 256 257 257 256 258 259 261 265 237 234 210 198 182 182 189 202 211 210 227 241 251 235 243 287 296 252 224 216 219 245 276 258 273 289 279 293 279 262
259 256 253 251 250 250 253 254 254 253 247 247 246 245 249 222 224 205 189 195 193 212 211 207 222 226 237 247 259 251 266 289 273 305 204 216 227 267 279 266 270 269 275 248 291
261 257 254 249 247 246 248 249 252 255 253 253 251 246 240 225 246 217 211 210 225 230 228 235 239 231 240 251 266 271 268 279 287 282 269 258 261 287 297 289 289 268 255 251 239
261 258 255 251 244 238 236 243 249 258 265 248 249 251 240 227 249 226 217 220 246 236 231 236 239 227 251 264 279 278 272 267 277 292 299 304 280 294 297 276 263 242 242 255 238
261 256 252 248 243 233 232 237 245 258 275 268 260 250 245 233 242 244 242 227 232 226 229 253 230 241 265 289 286 283 261 271 278 276 280 307 284 304 298 269 241 234 233 257 244
260 255 249 241 238 231 231 231 238 252 311 269 247 242 239 236 250 254 250 223 223 226 238 236 245 260 291 283 292 299 273 278 265 260 277 282 274 299 289 257 242 246 238 252 245
259 253 247 235 230 230 226 225 224 209 244 238 240 252 229 224 223 223 227 206 226 236 245 252 258 275 282 286 281 294 269 251 233 255 259 261 252 298 290 295 260 236 243 252 229
256 251 242 233 224 223 216 211 198 216 222 239 203 221 222 216 216 220 200 206 223 229 237 251 254 261 263 275 279 280 247 206 232 184 213 258 240 279 310 294 243 245 247 252 221
251 249 243 227 225 218 208 203 216 241 213 220 222 202 236 230 239 239 228 231 227 240 241 244 263 244 238 248 281 281 288 243 211 216 267 272 254 306 278 251 234 226 218 219 220
249 244 232 222 222 216 208 206 217 198 213 250 274 287 235 238 259 251 243 234 227 226 230 245 257 253 244 243 267 272 294 274 256 309 277 274 278 296 237 222 243 220 196 230 225
246 237 223 224 222 216 214 218 215 197 208 197 348 124 3 343 305 219 233 240 237 234 233 237 254 262 242 262 264 264 284 246 240 131 241 267 276 246 197 209 208 226 250 245 239
240 223 215 212 211 213 221 223 224 213 238 261 263 287 317 303 300 161 163 161 239 252 236 235 245 265 263 270 272 308 258 231 239 201 166 203 272 245 234 219 228 247 250 246 230
215 189 184 172 210 224 234 243 245 232 232 251 247 264 273 263 269 209 131 175 14 259 241 234 240 254 268 276 280 276 277 258 242 245 207 217 226 208 230 235 236 232 244 233 242
201 194 183 194 208 222 249 250 245 240 235 242 242 234 244 260 251 208 200 205 53 107 219 230 229 244 260 266 261 238 271 271 266 251 242 167 236 279 229 214 219 222 213 223 279
191 183 196 222 227 259 266 235 224 241 239 216 211 232 244 222 225 224 232 262 279 37 112 159 196 221 240 254 205 204 183 220 342 261 331 296 310 303 258 241 245 245 242 270 286
199 182 195 219 264 293 266 215 193 30 197 202 222 241 242 225 207 217 249 266 268 232 151 174 151 146 168 173 183 224 234 290 335 13 5 15 334 302 291 260 240 244 246 260 268
199 196 208 211 259 278 246 197 184 53 222 207 213 228 251 246 237 244 246 258 268 242 224 183 206 231 217 211 265 251 258 268 305 337 352 0 355 347 267 243 229 209 219 256 245
199 195 202 201 193 238 200 215 210 190 163 204 212 226 249 251 249 256 263 247 235 250 247 257 269 260 266 277 295 292 19 283 294 323 337 348 334 326 303 280 245 220 252 258 250
Height
3187 3188 3188 3188 3188 3189 3189 3189 3189 3189 3188 3189 3188 3188 3188 3188 3190 3192 3195 3197 3198 3198 3199 3199 3199 3197 3197 3196 3196 3197 3198 3197 3199 3198 3196 3192 3194 3194 3194 3192 3191 3191 3190 3188 3185
3187 3187 3187 3187 3188 3188 3188 3188 3189 3188 3188 3188 3188 3187 3187 3187 3187 3191 3194 3195 3196 3196 3198 3199 3200 3199 3197 3197 3197 3197 3199 3198 3198 3198 3194 3194 3194 3194 3194 3193 3194 3193 3192 3189 3186
3186 3186 3186 3186 3187 3187 3188 3188 3187 3187 3187 3187 3187 3187 3187 3187 3187 3188 3191 3193 3194 3195 3197 3199 3199 3199 3198 3197 3197 3197 3198 3200 3200 3198 3195 3196 3194 3195 3195 3192 3191 3192 3193 3192 3189
3184 3185 3185 3185 3186 3186 3187 3187 3186 3186 3186 3185 3186 3186 3186 3187 3189 3188 3189 3191 3193 3194 3196 3197 3198 3198 3197 3197 3197 3195 3197 3200 3198 3196 3193 3194 3195 3193 3193 3194 3193 3193 3194 3194 3191
3181 3182 3183 3183 3184 3184 3185 3185 3185 3185 3184 3184 3184 3185 3185 3186 3187 3187 3188 3189 3190 3192 3194 3196 3197 3196 3195 3194 3194 3193 3195 3196 3195 3194 3193 3195 3195 3195 3194 3194 3194 3193 3194 3194 3192
3178 3179 3180 3180 3181 3182 3182 3182 3183 3183 3183 3183 3183 3184 3183 3184 3185 3186 3186 3187 3188 3190 3192 3194 3194 3194 3194 3193 3192 3191 3189 3190 3190 3190 3190 3192 3194 3192 3193 3193 3194 3193 3193 3194 3191
3174 3175 3176 3177 3178 3179 3180 3180 3180 3181 3181 3181 3182 3182 3182 3183 3181 3182 3184 3184 3185 3187 3189 3191 3192 3193 3193 3192 3191 3190 3190 3187 3186 3186 3187 3190 3192 3189 3190 3191 3191 3192 3192 3192 3191
3169 3170 3171 3173 3174 3175 3177 3177 3177 3178 3179 3179 3179 3180 3180 3179 3179 3181 3182 3182 3184 3185 3188 3189 3190 3190 3191 3192 3192 3190 3190 3188 3187 3187 3188 3191 3189 3188 3187 3187 3188 3190 3189 3189 3190
3165 3166 3167 3168 3169 3171 3173 3173 3174 3175 3176 3176 3177 3177 3179 3177 3177 3178 3179 3181 3181 3183 3184 3186 3187 3187 3189 3190 3192 3191 3189 3188 3187 3188 3188 3189 3187 3187 3186 3186 3186 3186 3186 3188 3189
3160 3162 3163 3164 3165 3167 3168 3169 3169 3171 3172 3173 3174 3177 3177 3176 3174 3175 3176 3177 3179 3180 3181 3183 3184 3184 3185 3188 3189 3190 3187 3186 3186 3185 3184 3185 3185 3186 3184 3184 3186 3184 3185 3186 3187
3155 3156 3158 3160 3161 3163 3165 3165 3167 3166 3166 3168 3170 3171 3173 3173 3173 3173 3173 3175 3176 3177 3178 3179 3180 3179 3183 3186 3187 3188 3187 3186 3183 3183 3183 3183 3184 3183 3181 3181 3181 3180 3181 3185 3186
3150 3151 3154 3155 3156 3159 3160 3159 3160 3161 3162 3162 3165 3166 3169 3170 3170 3171 3172 3172 3173 3174 3176 3177 3174 3178 3181 3182 3183 3184 3184 3182 3181 3182 3183 3179 3178 3181 3179 3176 3176 3175 3178 3183 3184
3144 3146 3149 3150 3152 3155 3155 3156 3156 3157 3157 3159 3159 3160 3164 3165 3165 3168 3169 3169 3170 3170 3172 3173 3173 3176 3178 3179 3180 3180 3181 3178 3179 3177 3178 3175 3174 3175 3176 3175 3175 3174 3178 3180 3182
3139 3141 3144 3146 3150 3150 3150 3152 3153 3156 3155 3153 3153 3156 3157 3159 3159 3163 3165 3167 3167 3167 3170 3169 3169 3172 3174 3174 3177 3176 3178 3177 3175 3176 3174 3174 3173 3171 3171 3172 3172 3172 3174 3176 3179
3133 3135 3138 3142 3144 3145 3147 3149 3152 3155 3153 3149 3147 3147 3150 3152 3158 3158 3159 3162 3162 3165 3168 3165 3167 3170 3170 3170 3172 3172 3172 3172 3172 3173 3174 3173 3172 3169 3169 3169 3169 3168 3170 3174 3178
3129 3130 3132 3136 3139 3140 3144 3147 3151 3155 3148 3145 3144 3144 3144 3145 3149 3153 3154 3158 3161 3163 3163 3162 3164 3166 3166 3166 3168 3169 3169 3170 3170 3171 3172 3170 3170 3167 3166 3166 3165 3166 3167 3172 3173
3124 3124 3128 3131 3134 3136 3140 3145 3149 3146 3146 3144 3142 3141 3142 3143 3145 3148 3152 3154 3157 3159 3158 3159 3160 3162 3164 3165 3166 3167 3166 3167 3171 3172 3170 3168 3168 3165 3165 3163 3162 3162 3165 3168 3171
3120 3120 3123 3127 3127 3131 3136 3141 3141 3139 3141 3140 3139 3140 3140 3142 3143 3145 3147 3150 3153 3154 3155 3156 3157 3157 3161 3163 3164 3163 3163 3164 3169 3169 3164 3163 3163 3163 3163 3161 3159 3160 3162 3163 3165
3116 3117 3119 3120 3122 3127 3132 3134 3132 3137 3138 3137 3138 3139 3138 3139 3139 3140 3143 3146 3148 3150 3152 3153 3151 3154 3156 3159 3161 3159 3160 3162 3161 3162 3163 3161 3160 3160 3160 3159 3158 3157 3158 3161 3160
3113 3114 3114 3116 3119 3123 3127 3126 3129 3134 3135 3136 3138 3137 3137 3137 3137 3137 3140 3142 3143 3145 3147 3149 3149 3151 3153 3155 3156 3156 3157 3157 3157 3162 3164 3158 3157 3156 3157 3157 3157 3157 3157 3157 3158
3110 3110 3111 3113 3116 3119 3120 3121 3126 3133 3132 3135 3136 3136 3136 3136 3136 3135 3137 3139 3138 3138 3142 3145 3147 3147 3149 3151 3151 3153 3150 3151 3153 3155 3156 3160 3155 3154 3155 3155 3157 3155 3155 3157 3156
3108 3109 3110 3112 3116 3115 3117 3121 3125 3128 3129 3130 3134 3134 3134 3135 3135 3134 3135 3135 3135 3134 3136 3139 3143 3142 3144 3147 3149 3149 3148 3148 3150 3151 3151 3152 3154 3151 3153 3153 3154 3154 3154 3156 3157
3107 3108 3110 3111 3113 3115 3116 3118 3118 3121 3123 3126 3130 3131 3132 3133 3135 3133 3134 3134 3133 3132 3131 3133 3137 3140 3140 3144 3145 3145 3145 3145 3145 3146 3149 3150 3151 3151 3151 3151 3152 3153 3156 3156 3155
3106 3108 3109 3110 3111 3112 3113 3113 3116 3117 3118 3121 3125 3127 3129 3129 3131 3132 3132 3132 3131 3130 3129 3131 3132 3135 3137 3139 3141 3142 3143 3144 3144 3144 3146 3147 3147 3148 3147 3149 3150 3150 3153 3153 3149
3103 3105 3106 3108 3109 3109 3110 3111 3113 3113 3116 3119 3121 3123 3124 3126 3127 3128 3128 3130 3131 3130 3130 3131 3131 3132 3134 3136 3137 3138 3140 3141 3142 3142 3145 3142 3144 3145 3145 3146 3147 3148 3150 3150 3147
3101 3104 3105 3107 3107 3108 3107 3109 3111 3112 3114 3116 3118 3117 3119 3122 3124 3125 3125 3127 3128 3129 3129 3129 3129 3130 3132 3134 3135 3134 3137 3138 3138 3138 3140 3138 3141 3143 3144 3143 3143 3145 3146 3147 3148
3099 3101 3104 3107 3106 3107 3105 3106 3109 3111 3112 3113 3115 3115 3117 3118 3120 3122 3122 3124 3126 3127 3128 3129 3127 3128 3130 3131 3131 3133 3134 3135 3135 3135 3136 3137 3138 3140 3140 3140 3141 3143 3143 3144 3143